Mankato, MN

1:24 PM CST on December 07, 2016 (GMT -0600)
Mankato Regional

Weather History for KMKT - November, 2012

Change the Weather History Date:

Monday, November 26, 2012

  Actual Average Record
Temperature  
Mean Temperature 17 °F -  
Max Temperature 24 °F 35 °F 60 °F (1998)
Min Temperature 10 °F 22 °F -11 °F (1996)
Degree Days  
Heating Degree Days 48    
Moisture  
Dew Point 5 °F    
Average Humidity 58    
Maximum Humidity 73    
Minimum Humidity 46    
Precipitation  
Precipitation 0.00 in - - ()
Sea Level Pressure  
Sea Level Pressure 30.34 in    
Wind  
Wind Speed 12 mph (NW)    
Max Wind Speed 21 mph    
Max Gust Speed 25 mph    
Visibility 10 miles    
Events      
Averages and records for this station are not official NWS values.
T = Trace of Precipitation, MM = Missing Value Source: NWS Daily Summary

Daily Weather History Graph

Daily Weather History Graph

Search for Another Location

Airport or City:

Trip Planner

Search our weather history database for the weather conditions in past years. The results will help you decide how hot, cold, wet, or windy it might be!

Date:

Astronomy

Nov. 26, 2012 Rise Set
Actual Time 7:25 AM CST 4:40 PM CST
Civil Twilight 6:53 AM CST 5:12 PM CST
Nautical Twilight 6:17 AM CST 5:48 PM CST
Astronomical Twilight 5:43 AM CST 6:22 PM CST
Moon 3:34 PM CST (11/26) 5:34 AM CST (11/26)
Length of Visible Light 10h 18m
Length of Day
9h 14m
Waxing Gibbous, 97% of the Moon is Illuminated
Nov 26
Waxing Gibbous
Nov 28
Full
Dec 6
Last Quarter
Dec 13
New
Dec 19
First Quarter

Hourly Weather History & Observations

Time (CST) Temp. Windchill Dew Point Humidity Pressure Visibility Wind Dir Wind Speed Gust Speed Precip Events Conditions
12:15 AM 24.8 °F 12.9 °F 8.6 °F 50% 30.17 in 10.0 mi North 13.8 mph - N/A   Overcast
12:35 AM 24.8 °F 12.9 °F 8.6 °F 50% 30.18 in 10.0 mi North 13.8 mph - N/A   Overcast
12:55 AM 24.8 °F 13.4 °F 8.6 °F 50% 30.18 in 10.0 mi North 12.7 mph - N/A   Overcast
1:15 AM 24.8 °F 14.6 °F 8.6 °F 50% 30.18 in 10.0 mi North 10.4 mph - N/A   Overcast
1:35 AM 24.8 °F 14.6 °F 10.4 °F 54% 30.19 in 10.0 mi North 10.4 mph - N/A   Overcast
1:55 AM 24.8 °F 14.0 °F 10.4 °F 54% 30.20 in 10.0 mi NNW 11.5 mph - N/A   Overcast
2:15 AM 24.8 °F 11.5 °F 10.4 °F 54% 30.21 in 10.0 mi NNW 17.3 mph - N/A   Overcast
2:35 AM 23.0 °F 9.2 °F 8.6 °F 54% 30.22 in 10.0 mi North 17.3 mph 21.9 mph N/A   Overcast
2:55 AM 21.2 °F 6.8 °F 8.6 °F 58% 30.23 in 10.0 mi NNW 17.3 mph 21.9 mph N/A   Overcast
3:15 AM 21.2 °F 6.4 °F 6.8 °F 54% 30.23 in 10.0 mi NNW 18.4 mph 23.0 mph N/A   Overcast
3:35 AM 19.4 °F 4.1 °F 5.0 °F 54% 30.24 in 10.0 mi NNW 18.4 mph - N/A   Overcast
3:55 AM 19.4 °F 4.1 °F 5.0 °F 54% 30.24 in 10.0 mi NNW 18.4 mph - N/A   Overcast
4:15 AM 17.6 °F 2.7 °F 3.2 °F 53% 30.25 in 10.0 mi NNW 16.1 mph 20.7 mph N/A   Overcast
4:35 AM 17.6 °F 0.9 °F 1.4 °F 49% 30.26 in 10.0 mi NNW 20.7 mph 25.3 mph N/A   Overcast
4:55 AM 15.8 °F 0.3 °F 1.4 °F 53% 30.27 in 10.0 mi NNW 16.1 mph - N/A   Mostly Cloudy
5:15 AM 14.0 °F -1.4 °F 1.4 °F 57% 30.28 in 10.0 mi NW 15.0 mph - N/A   Partly Cloudy
5:35 AM 14.0 °F -0.8 °F 3.2 °F 62% 30.28 in 10.0 mi NNW 13.8 mph - N/A   Clear
5:55 AM 12.2 °F -0.2 °F 3.2 °F 67% 30.29 in 10.0 mi NNW 9.2 mph - N/A   Clear
6:15 AM 12.2 °F -1.8 °F 3.2 °F 67% 30.30 in 10.0 mi NNW 11.5 mph - N/A   Clear
6:35 AM 12.2 °F -0.2 °F 3.2 °F 67% 30.31 in 10.0 mi NNW 9.2 mph - N/A   Clear
6:55 AM 12.2 °F -2.5 °F 1.4 °F 62% 30.32 in 10.0 mi NNW 12.7 mph 17.3 mph N/A   Clear
7:15 AM 10.4 °F -2.4 °F 3.2 °F 73% 30.32 in 10.0 mi NNW 9.2 mph - N/A   Clear
7:35 AM 10.4 °F -3.3 °F 3.2 °F 73% 30.33 in 10.0 mi NNW 10.4 mph - N/A   Clear
7:55 AM 10.4 °F -2.4 °F 3.2 °F 73% 30.35 in 10.0 mi NW 9.2 mph - N/A   Clear
8:15 AM 10.4 °F -4.1 °F 3.2 °F 73% 30.36 in 10.0 mi NNW 11.5 mph 16.1 mph N/A   Clear
8:35 AM 12.2 °F -2.5 °F 3.2 °F 67% 30.37 in 10.0 mi NNW 12.7 mph - N/A   Clear
8:55 AM 12.2 °F -3.1 °F 3.2 °F 67% 30.37 in 10.0 mi NNW 13.8 mph - N/A   Clear
9:15 AM 12.2 °F -3.1 °F 3.2 °F 67% 30.39 in 10.0 mi NW 13.8 mph - N/A   Clear
9:35 AM 12.2 °F -3.1 °F 3.2 °F 67% 30.39 in 10.0 mi NNW 13.8 mph - N/A   Clear
9:55 AM 14.0 °F -0.2 °F 3.2 °F 62% 30.40 in 10.0 mi NNW 12.7 mph - N/A   Clear
10:15 AM 15.8 °F 2.7 °F 3.2 °F 58% 30.40 in 10.0 mi NNW 11.5 mph - N/A   Clear
10:35 AM 15.8 °F 2.7 °F 3.2 °F 58% 30.41 in 10.0 mi NNW 11.5 mph - N/A   Clear
10:55 AM 15.8 °F 2.1 °F 3.2 °F 58% 30.41 in 10.0 mi NNW 12.7 mph - N/A   Clear
11:15 AM 17.6 °F 4.3 °F 3.2 °F 53% 30.41 in 10.0 mi NW 12.7 mph - N/A   Clear
11:35 AM 17.6 °F 5.7 °F 3.2 °F 53% 30.41 in 10.0 mi NNW 10.4 mph - N/A   Clear
11:55 AM 19.4 °F 6.0 °F 5.0 °F 54% 30.41 in 10.0 mi NNW 13.8 mph 19.6 mph N/A   Clear
12:15 PM 19.4 °F 7.2 °F 5.0 °F 54% 30.40 in 10.0 mi NW 11.5 mph - N/A   Clear
12:35 PM 19.4 °F 7.2 °F 5.0 °F 54% 30.41 in 10.0 mi NW 11.5 mph 19.6 mph N/A   Clear
12:55 PM 19.4 °F 6.6 °F 5.0 °F 54% 30.40 in 10.0 mi NW 12.7 mph - N/A   Clear
1:15 PM 21.2 °F 8.9 °F 3.2 °F 46% 30.39 in 10.0 mi NNW 12.7 mph - N/A   Clear
1:35 PM 21.2 °F 9.5 °F 3.2 °F 46% 30.39 in 10.0 mi NW 11.5 mph - N/A   Clear
1:55 PM 21.2 °F 8.9 °F 5.0 °F 50% 30.38 in 10.0 mi NNW 12.7 mph - N/A   Clear
2:15 PM 21.2 °F 8.9 °F 5.0 °F 50% 30.38 in 10.0 mi NNW 12.7 mph 16.1 mph N/A   Clear
2:35 PM 21.2 °F 10.1 °F 5.0 °F 50% 30.38 in 10.0 mi NNW 10.4 mph - N/A   Clear
2:55 PM 21.2 °F 8.9 °F 5.0 °F 50% 30.38 in 10.0 mi WNW 12.7 mph 17.3 mph N/A   Clear
3:15 PM 21.2 °F 10.1 °F 6.8 °F 54% 30.39 in 10.0 mi NNW 10.4 mph - N/A   Clear
3:35 PM 21.2 °F 10.9 °F 6.8 °F 54% 30.39 in 10.0 mi NW 9.2 mph - N/A   Clear
3:55 PM 21.2 °F 10.9 °F 6.8 °F 54% 30.39 in 10.0 mi NW 9.2 mph - N/A   Clear
4:15 PM 21.2 °F 11.7 °F 6.8 °F 54% 30.39 in 10.0 mi NW 8.1 mph - N/A   Clear
4:35 PM 21.2 °F 10.9 °F 6.8 °F 54% 30.39 in 10.0 mi NW 9.2 mph - N/A   Clear
4:55 PM 19.4 °F 10.4 °F 6.8 °F 58% 30.39 in 10.0 mi NW 6.9 mph - N/A   Clear
5:15 PM 19.4 °F 11.5 °F 5.0 °F 54% 30.39 in 10.0 mi NW 5.8 mph - N/A   Clear
5:35 PM 19.4 °F 11.5 °F 3.2 °F 49% 30.40 in 10.0 mi WNW 5.8 mph - N/A   Clear
5:55 PM 19.4 °F 11.5 °F 5.0 °F 54% 30.40 in 10.0 mi WNW 5.8 mph - N/A   Clear
6:15 PM 19.4 °F 11.5 °F 5.0 °F 54% 30.40 in 10.0 mi WNW 5.8 mph - N/A   Clear
6:35 PM 17.6 °F 9.3 °F 5.0 °F 58% 30.39 in 10.0 mi WNW 5.8 mph - N/A   Clear
6:55 PM 17.6 °F 10.7 °F 5.0 °F 58% 30.38 in 10.0 mi NW 4.6 mph - N/A   Clear
7:15 PM 17.6 °F - 5.0 °F 58% 30.38 in 10.0 mi Calm Calm - N/A   Clear
7:35 PM 17.6 °F - 6.8 °F 63% 30.37 in 10.0 mi Calm Calm - N/A   Clear
7:55 PM 15.8 °F 8.6 °F 5.0 °F 62% 30.37 in 10.0 mi SSW 4.6 mph - N/A   Clear
8:15 PM 17.6 °F 10.7 °F 6.8 °F 63% 30.37 in 10.0 mi SSW 4.6 mph - N/A   Clear
8:35 PM 15.8 °F 8.6 °F 3.2 °F 58% 30.38 in 10.0 mi SW 4.6 mph - N/A   Clear
8:55 PM 15.8 °F 6.1 °F 6.8 °F 68% 30.38 in 10.0 mi SSW 6.9 mph - N/A   Clear
9:15 PM 15.8 °F 5.1 °F 5.0 °F 62% 30.38 in 10.0 mi SSW 8.1 mph - N/A   Clear
9:35 PM 15.8 °F 6.1 °F 5.0 °F 62% 30.37 in 10.0 mi SSW 6.9 mph - N/A   Clear
9:55 PM 15.8 °F 7.2 °F 3.2 °F 58% 30.37 in 10.0 mi SSW 5.8 mph - N/A   Clear
10:15 PM 15.8 °F 5.1 °F 5.0 °F 62% 30.36 in 10.0 mi SSW 8.1 mph - N/A   Clear
10:35 PM 15.8 °F 4.2 °F 5.0 °F 62% 30.35 in 10.0 mi South 9.2 mph - N/A   Clear
10:55 PM 15.8 °F 4.2 °F 5.0 °F 62% 30.35 in 10.0 mi SSW 9.2 mph - N/A   Clear
11:15 PM 12.2 °F 2.9 °F 3.2 °F 67% 30.35 in 10.0 mi SSW 5.8 mph - N/A   Clear
11:35 PM 14.0 °F 5.1 °F 5.0 °F 67% 30.35 in 10.0 mi SSW 5.8 mph - N/A   Clear
11:55 PM 14.0 °F 2.9 °F 5.0 °F 67% 30.34 in 10.0 mi South 8.1 mph - N/A   Clear